SCP
0 0 0 0 0 0 0 0 0 0 0 0 0 0 0 0 0 0 0 0 0 0 0 0 0 0 0 0 0 0 0 0 0 0 0 0 0 0 0 0 0 0 0
0 0 0 0 0 0 0 0 0 0 0 0 0 0 0 0 0 0 0 0 0 0 0 0 0 0 0 0 0 0 0 0 0 0 0 0 0 0 0 0 0 0 0
0 0 0 0 0 0 0 0 0 0 0 0 0 0 0 0 0 0 0 0 0 0 0 0 0 0 0 0 0 0 0 0 0 0 0 0 0 0 0 0 0 0 0
0 0 0 0 0 0 0 0 0 0 0 0 0 0 0 0 0 0 0 0 0 0 0 0 0 0 0 0 0 0 0 0 0 0 0 0 0 0 0 0 0 0 0
0 0 0 0 0 0 0 0 0 0 0 0 0 0 0 0 0 0 0 0 0 0 0 0 0 0 0 0 0 0 0 0 0 0 0 0 0 0 0 0 0 0 0
0 0 0 0 0 0 0 0 0 0 0 0 0 0 0 0 0 0 0 0 0 0 0 0 0 0 0 0 0 0 0 0 0 0 0 0 0 0 0 0 0 0 0
0 0 0 0 0 0 0 0 0 0 0 0 0 0 0 0 0 0 0 0 0 0 0 0 0 0 0 0 0 0 0 0 0 0 0 0 0 0 0 0 0 0 0
0 0 0 0 0 0 0 0 0 0 0 0 0 0 0 0 0 0 0 0 0 0 0 0 0 0 0 0 0 0 0 0 0 0 0 0 0 0 0 0 0 0 0
0 0 0 0 0 0 0 0 0 0 0 0 0 0 0 0 0 0 0 0 0 0 0 0 0 0 0 0 0 0 0 0 0 0 0 0 0 0 0 0 0 0 0
0 0 0 0 0 0 0 0 0 0 0 0 0 0 0 0 0 0 0 0 0 0 0 0 0 0 0 0 0 0 0 0 0 0 0 0 0 0 0 0 0 0 0
0 0 0 0 0 0 0 0 0 0 0 0 0 0 0 0 0 0 0 0 0 0 0 0 0 0 0 0 0 0 0 0 0 0 0 0 0 0 0 0 0 0 0
0 0 0 0 0 0 0 0 0 0 0 0 0 0 0 0 0 0 0 0 0 0 0 0 0 0 0 0 0 0 0 0 0 0 0 0 0 0 0 0 0 0 0
0 0 0 0 0 0 0 0 0 0 0 0 0 0 0 0 0 0 0 0 0 0 0 0 0 0 0 0 0 0 0 0 0 0 0 0 0 0 0 0 0 0 0
0 0 0 0 0 0 0 0 0 0 0 0 0 0 0 0 0 0 0 0 0 0 0 0 0 0 0 0 0 0 0 0 0 0 0 0 0 0 0 0 0 0 0
0 0 0 0 0 0 0 0 0 0 0 0 0 0 0 0 0 0 0 0 0 0 0 0 0 0 0 0 0 0 0 0 0 0 0 0 0 0 0 0 0 0 0
0 0 0 0 0 0 0 0 0 0 0 0 0 0 0 0 0 0 0 0 0 0 0 0 0 0 0 0 0 0 0 0 0 0 0 0 0 0 0 0 0 0 0
0 0 0 0 0 0 0 0 0 0 0 0 0 0 0 0 0 0 0 0 0 0 0 0 0 0 0 0 0 0 0 0 0 0 0 0 0 0 0 0 0 0 0
0 0 0 0 0 0 0 0 0 0 0 0 0 0 0 0 0 0 0 0 0 0 0 0 0 0 0 0 0 0 0 0 0 0 0 0 0 0 0 0 0 0 0
0 0 0 0 0 0 0 0 0 0 0 0 0 0 0 0 0 0 0 0 0 0 0 0 0 0 0 0 0 0 0 0 0 0 0 0 0 0 0 0 0 0 0
0 0 0 0 0 0 0 0 0 0 0 0 0 0 0 0 0 0 0 0 0 0 0 0 0 0 0 0 0 0 0 0 0 0 0 0 0 0 0 0 0 0 0
0 0 0 0 0 0 0 0 0 0 0 0 0 0 0 0 0 0 0 0 0 0 0 0 0 0 0 0 0 0 0 0 0 0 0 0 0 0 0 0 0 0 0
0 0 0 0 0 0 0 0 0 0 0 0 0 0 0 0 0 0 0 0 0 0 0 0 0 0 0 0 0 0 0 0 0 0 0 0 0 0 0 0 0 0 0
0 0 0 0 0 0 0 0 0 0 0 0 0 0 0 0 0 0 0 0 0 0 0 0 0 0 0 0 0 0 0 0 0 0 0 0 0 0 0 0 0 0 0
0 0 0 0 0 0 0 0 0 0 0 0 0 0 0 0 0 0 0 0 0 0 0 0 0 0 0 0 0 0 0 0 0 0 0 0 0 0 0 0 0 0 0
0 0 0 0 0 0 0 0 0 0 0 0 0 0 0 0 0 0 0 0 0 0 0 0 0 0 0 0 0 0 0 0 0 0 0 0 0 0 0 0 0 0 0
0 0 0 0 0 0 0 0 0 0 0 0 0 0 0 0 0 0 0 0 0 0 0 0 0 0 0 0 0 0 0 0 0 0 0 0 0 0 0 0 0 0 0
Wind_Speed
1 2 2 4 6 7 8 8 8 8 8 8 9 9 10 10 10 10 10 10 11 11 11 12 13 13 13 13 13 12 13 13 14 14 13 13 14 14 14 14 12 8 14
2 2 3 4 6 7 7 8 8 8 8 8 9 9 9 9 10 10 10 10 11 11 12 12 13 13 13 13 13 13 13 14 14 13 12 10 12 13 14 13 12 9 14
3 2 3 4 6 7 7 8 8 7 7 8 8 9 9 9 9 10 10 10 10 11 11 12 13 13 13 13 13 13 14 14 14 12 10 6 8 13 14 13 13 14 14
3 2 3 4 6 7 8 8 8 7 7 7 7 8 8 9 9 9 10 10 10 10 11 12 12 12 13 13 14 14 14 15 13 11 6 5 5 12 13 13 13 13 13
3 2 3 5 7 7 8 8 8 8 7 7 7 8 8 9 9 9 10 10 10 10 11 11 11 12 12 12 13 14 14 14 12 9 6 5 5 11 12 13 13 13 13
3 2 3 6 6 7 7 8 7 8 7 7 7 8 8 9 9 9 10 9 10 10 10 11 11 11 11 11 12 13 13 12 9 6 5 5 4 10 12 12 12 12 12
3 2 2 5 6 7 7 7 7 7 7 7 7 8 8 8 9 9 9 9 9 9 10 10 10 10 10 10 11 12 12 10 7 5 4 4 5 11 12 12 11 11 11
4 3 3 4 5 5 6 7 7 7 7 7 7 8 8 8 8 9 8 9 9 9 9 9 9 9 9 10 10 11 11 9 7 5 4 4 7 11 11 11 11 11 11
4 4 3 3 3 4 5 6 6 6 7 7 7 8 7 8 8 8 8 8 8 9 9 9 8 8 9 9 9 10 10 10 6 4 4 3 7 10 11 11 10 10 11
4 4 3 3 3 3 3 5 6 7 7 7 7 8 7 7 7 7 7 8 8 8 9 8 8 8 8 8 9 9 9 7 5 4 3 3 7 9 10 10 9 9 10
3 3 3 3 3 3 2 4 5 6 6 6 5 7 6 3 3 4 6 8 7 7 8 8 8 8 7 7 8 8 7 3 4 3 2 5 7 7 8 9 8 9 9
1 1 2 2 2 2 3 3 2 3 4 4 3 4 3 3 3 4 6 7 8 7 7 7 8 7 6 3 5 6 3 3 3 2 2 5 6 6 7 8 8 8 8
1 1 1 1 2 2 2 2 2 2 2 3 4 3 3 3 2 3 2 3 4 5 4 4 5 4 3 3 3 3 3 2 2 2 2 5 5 6 6 6 7 7 7
2 1 1 1 2 2 2 2 2 2 2 2 2 3 2 2 2 2 2 2 2 2 2 3 2 3 4 4 4 3 3 2 2 2 2 5 5 5 6 5 6 6 6
2 2 1 1 2 1 2 1 2 1 2 2 2 2 2 2 2 2 1 2 2 2 2 2 2 3 3 3 4 4 3 3 2 2 2 4 4 4 5 5 5 5 5
3 2 2 1 1 2 2 1 1 1 1 2 2 1 2 2 2 1 1 1 1 1 2 2 2 2 2 2 3 3 3 3 3 3 2 3 4 4 4 4 4 4 4
3 3 2 2 2 2 2 2 2 1 1 2 1 1 2 2 2 2 2 1 1 1 2 2 2 2 3 3 3 3 2 2 3 3 3 2 2 4 5 4 4 3 3
3 3 2 2 2 2 2 2 2 1 2 1 1 1 1 2 2 2 2 1 1 1 1 2 2 2 2 2 2 2 2 2 2 2 2 3 2 2 3 5 4 3 3
4 4 3 2 2 2 2 2 2 2 1 1 1 1 1 1 2 2 2 1 1 1 1 2 2 2 2 2 1 1 2 2 1 2 2 3 3 3 2 3 5 3 3
2 2 3 2 2 2 2 2 2 2 1 1 1 1 1 1 1 2 2 2 2 2 1 1 2 2 2 1 2 2 2 2 1 1 2 2 3 3 3 3 2 2 4
2 2 2 2 2 2 2 2 2 2 1 1 1 1 1 1 1 2 2 2 2 2 1 2 2 2 2 1 2 2 2 2 2 1 1 2 2 2 3 3 2 2 2
3 2 2 2 2 2 2 2 1 2 1 1 0 1 1 1 1 2 2 2 2 1 1 2 2 2 1 1 2 2 1 2 2 2 1 1 1 2 2 3 2 2 2
2 3 3 3 2 2 1 1 2 1 1 1 0 0 0 1 0 1 2 2 2 2 2 1 2 3 2 1 1 2 2 2 1 2 1 1 1 1 1 1 2 2 2
3 3 2 2 2 2 2 3 3 2 2 2 1 1 0 0 0 1 1 2 2 2 2 2 1 1 3 2 1 0 0 2 2 1 2 1 1 1 1 1 1 2 2
2 2 2 2 2 2 2 3 3 2 1 0 1 1 0 0 0 0 1 1 2 1 2 2 2 1 2 3 2 1 0 1 1 1 2 2 2 2 2 2 1 1 2
1 2 2 2 2 2 2 2 2 2 2 1 1 0 1 1 1 1 1 1 2 2 2 2 2 2 2 2 2 2 2 2 2 1 2 2 3 2 2 1 1 2 2
Wind_Direction
254 251 146 111 110 103 97 91 85 81 80 78 79 83 82 82 80 77 79 80 78 74 74 74 72 72 70 71 74 82 88 89 90 87 84 85 87 87 86 84 83 82 87
190 200 131 115 112 107 102 95 89 82 81 82 83 84 83 83 81 79 80 80 78 77 76 77 75 74 72 72 75 80 88 93 91 84 78 77 85 88 87 83 82 85 87
130 148 129 112 108 107 102 98 93 87 85 87 87 86 85 83 84 83 81 81 78 78 79 79 77 75 73 74 77 82 87 94 92 83 74 69 84 90 89 86 86 88 87
126 126 123 108 106 107 104 101 99 93 90 89 89 88 87 86 87 85 83 80 78 76 79 79 78 76 75 75 77 82 88 92 90 83 74 66 81 92 92 89 89 90 90
106 110 118 113 108 105 106 102 99 95 94 93 92 89 90 90 90 88 84 79 77 75 77 80 80 77 76 75 79 80 83 84 84 78 72 68 77 97 95 92 91 90 90
97 98 117 116 111 103 103 104 100 98 96 96 94 92 94 95 93 91 87 82 80 78 78 79 82 79 76 75 77 81 81 78 77 73 69 67 78 98 98 95 93 93 92
91 74 107 111 110 104 100 105 105 100 98 96 93 93 96 97 95 92 90 87 83 82 80 80 82 82 78 76 77 79 80 73 71 72 68 69 88 98 98 97 95 95 95
84 72 70 91 98 100 100 98 101 101 97 94 92 92 91 91 94 91 87 86 85 83 81 80 83 83 80 76 76 77 73 71 70 73 66 74 94 99 99 98 97 95 92
74 65 54 51 59 73 85 90 91 91 94 91 87 85 84 85 83 88 85 83 81 81 80 78 80 82 79 74 75 76 71 68 66 65 65 73 94 101 100 98 99 96 93
64 58 50 47 45 46 67 78 81 80 82 86 82 78 75 75 79 78 77 78 78 79 80 79 80 81 78 74 74 74 70 70 61 59 52 68 89 105 104 101 101 100 99
51 44 52 50 45 42 58 73 76 78 75 77 77 75 72 60 65 70 67 72 74 75 78 77 77 77 73 70 73 72 68 63 66 55 46 63 84 104 107 104 103 103 102
63 39 54 53 48 50 56 57 52 62 65 60 57 63 65 60 60 64 65 69 71 69 70 71 71 69 61 48 53 65 60 61 65 56 52 66 83 94 107 107 105 104 104
158 69 57 80 69 70 68 70 59 59 60 58 57 57 60 62 57 58 59 53 57 61 56 56 57 51 54 53 47 44 52 65 56 48 57 70 80 91 96 107 109 104 104
140 125 55 94 90 79 82 83 82 80 78 72 63 64 77 75 61 63 66 53 51 49 52 50 54 56 57 58 60 58 50 49 52 43 56 72 79 91 96 95 109 108 105
167 167 144 107 114 108 100 99 88 88 93 96 83 72 79 94 86 66 63 61 52 49 56 56 67 70 65 59 59 60 54 53 52 43 36 60 69 83 90 97 95 112 113
197 190 169 139 137 131 127 123 122 110 98 92 85 72 85 92 107 109 81 63 57 55 55 63 71 80 70 64 64 60 55 51 49 44 39 43 55 71 83 86 95 94 116
199 188 180 172 154 148 149 140 121 115 108 99 88 80 85 90 110 121 110 83 47 45 63 67 63 67 69 66 61 59 57 46 45 40 34 32 31 55 70 74 84 82 105
183 178 186 172 159 157 156 143 131 118 112 106 95 99 83 84 98 112 107 97 71 68 80 97 84 81 70 69 55 39 55 46 43 41 39 36 29 24 47 61 61 68 71
185 176 175 171 172 172 157 141 131 124 116 117 106 105 95 88 96 111 110 106 107 93 84 105 94 106 98 76 69 45 44 45 35 42 45 39 33 29 23 43 47 52 40
170 170 172 168 174 168 145 128 122 108 103 104 110 111 120 126 120 115 113 97 106 108 87 92 106 84 101 95 73 48 28 26 36 52 48 37 33 31 25 28 28 30 32
133 143 167 167 182 157 158 170 170 173 169 154 133 108 126 129 133 122 112 107 95 112 128 109 110 95 69 72 82 45 12 19 32 34 44 48 29 21 23 23 21 14 0
179 181 180 181 173 173 181 181 170 155 152 156 123 83 78 107 141 139 129 132 121 107 100 115 116 118 97 80 108 105 19 336 348 1 14 39 17 13 12 1 3 3 353
197 197 189 191 176 168 143 122 109 86 78 92 62 335 14 89 114 136 139 140 136 141 161 168 159 144 159 191 92 133 156 214 297 314 337 349 4 3 338 328 348 352 347
211 202 182 177 166 154 140 140 148 164 180 201 194 196 221 127 107 117 145 149 149 153 164 185 173 181 162 175 200 7 123 145 164 272 303 315 320 299 296 312 326 328 336
196 180 179 158 140 134 138 152 157 157 169 131 126 165 205 243 191 118 141 160 161 164 167 171 179 183 182 177 174 162 99 36 113 174 255 291 300 271 266 268 279 299 310
145 146 148 142 131 133 139 148 155 156 151 134 123 188 241 247 240 214 177 182 187 183 180 184 188 185 197 190 180 166 166 173 192 189 230 254 270 274 273 264 255 264 278